Неизвестная ошибка (Warning): строка 43 файла /metar/Service/MetarService.php
Описание:
file_get_contents(https://www.aviationweather.gov/adds/metars/?station_ids=UNKL&std_trans=standard&chk_metars=on&hoursStr=most+recent+only&submitmet=Submit): Failed to open stream: HTTP request failed! HTTP/1.1 403 Forbidden
Трассировка:
 #1 metar/Service/MetarService.php, line=43, function=file_get_contents()
  #2 metar/Service/MetarService.php, line=18, function=getFromAviationweatherGov()
   #3 metar/index.php, line=30, function=getMetarString()
    #4 index.php, line=1, function=include()
Погода для параплана Кемерово под Лысую гору

Погода METAR - Красноярск

Кемерово, Абакан, Красноярск, Новосибирск
Код METAR: UNKL 031230Z VRB01MPS 9000 NSC M12/M15 Q1020 R29/CLRD65 NOSIG RMK QFE739

Погода - Сейчас

Время: 2024-03-03 19:30, местное
Направление ветра: Переменный
Скорость ветра: 1 м/с
Видимость:
Температура: -12°C
Точка росы: -15°C
Атмосферное давление: 1020 гПа

Архив погоды

Время, местное Направление Скорость, м/с Температура, °C Точка росы, °C Давление, гПа
2024-03-03 19:30 Переменный 1 -12 -15 1020
2024-03-03 18:30 В (90°) 1 -11 -15 1019
2024-02-29 03:00 ЮЗ (210°) 3 -7 -18 1028
2024-02-26 20:30 Штиль 0 -20 -22 1035
2024-02-22 16:00 В (80°) 2 -16 -25 1038
2024-02-20 23:00 З (280°) 1 -28 -32 1047
2024-02-19 00:30 З (280°) 2 -33 -37 1040
2024-02-17 12:30 З (270°) 7 -23 -30 1030
2024-02-13 17:00 ЗЮЗ (250°) 4 -14 -20 1028
2024-02-06 22:30 Штиль 0 -11 -11 1027
2024-02-05 19:30 ЮЗ (230°) 4 -1 -8 1023
2024-02-05 08:00 ЮЮЗ (200°) 4 -2 -9 1018
2024-02-02 21:00 Переменный 1 -18 -19 1027
2024-02-02 17:30 ЗЮЗ (240°) 1 -15 -17 1028
2024-01-27 23:00 Ю (190°) 1 -19 -21 1033
2024-01-22 17:30 ЗЮЗ (240°) 1 -19 -21 1042
2024-01-19 07:30 Штиль 0 -26 -29 1043
2024-01-19 05:00 Штиль 0 -26 -28 1043
2024-01-16 15:00 ЗЮЗ (260°) 4 -16 -22 1036
2024-01-14 10:00 ВЮВ (110°) 4 -10 -17 1009
2024-01-14 05:30 В (90°) 1 -11 -18 1012
2024-01-14 00:00 Ю (170°) 3 -8 -20 1013
2024-01-13 10:30 ЮЮЗ (200°) 5 -13 -23 1020
2024-01-13 06:00 ЮЮЗ (200°) 4 -14 -24 1023
2024-01-09 12:30 ЗЮЗ (240°) 6 -5 -15 998
2024-01-08 10:00 Штиль 0 -25 -28 1017
2024-01-07 12:00 З (270°) 6 -9 -13 1021
2024-01-07 05:00 ЗЮЗ (260°) 7 -6 -10 1015
2024-01-06 07:30 ЮЗ (210°) 6 -6 -10 1008
2024-01-06 05:30 ЮЗ (220°) 5 -6 -11 1008
2024-01-04 21:30 Штиль 0 -29 -31 1033
2024-01-04 20:00 ЗСЗ (290°) 1 -28 -31 1032
2024-01-04 09:00 З (280°) 6 -20 -24 1025
2024-01-02 16:00 ЮЮЗ (200°) 4 0 -3 1000
2024-01-02 04:30 В (90°) 2 -11 -12 1013
2024-01-01 10:00 ЗЮЗ (260°) 7 -7 -12 1013
2023-12-31 08:30 ЮЮЗ (200°) 4 -3 -11 1010
2023-12-31 03:00 ЮЗ (230°) 4 -4 -11 1013
2023-12-29 12:30 Ю (170°) 3 0 -6 1017
2023-12-28 00:00 Штиль 0 -15 -16 1020
2023-12-25 05:30 ЮВ (120°) 1 -7 -7 1024
2023-12-24 22:00 З (270°) 1 -6 -6 1023
2023-12-23 16:00 Переменный 1 0 -3 1025
2023-12-22 08:00 ЮЗ (220°) 4 -6 -9 1027
2023-12-21 15:30 ЮЗ (210°) 3 -8 -13 1030
2023-12-21 05:30 Переменный 1 -14 -16 1030
2023-12-20 21:00 ЗСЗ (290°) 1 -18 -20 1031
2023-12-19 01:00 Штиль 0 -35 -38 1047